Location: Taukkyan
(23.1052°N, 94.0030°E)
Time: 11:46:35
(UTC+00:00)

Cosmos 1833 Rocket - Pass Details

Date: 06 July 2020
Orbit: 832 x 840 km, 71.0° (Epoch: 14 August)

Event Time Altitude Azimuth Distance (km) Brightness Sun altitude
Exits shadow 19:50:52 26° 84° (E) 1,576 4.4 -35.5°
Drops below altitude 10° 19:54:30 10° 46° (NE) 2,436 5.9 -35.1°
Sets 19:57:15 0° 34° (NE) 3,373 6.9 -34.7°
